Regional Weather Roundup
Issued by NWS

Home | Current Version | Previous Version | Graphics & Text | Print | Product List | Glossary On
Versions: 1 2 3 4 5 6 7 8 9 10 11 12 13 14 15 16 17 18 19 20 21 22 23 24 25 26 27 28 29 30 31 32 33 34 35 36 37 38 39 40 41 42 43 44 45 46 47 48 49 50
000
ASUS43 KLMK 102002
RWRKY
KENTUCKY REGIONAL WEATHER ROUNDUP
NATIONAL WEATHER SERVICE LOUISVILLE KY
300 PM EST SUN DEC 10 2017

NOTE "FAIR" INDICATES FEW OR NO CLOUDS BELOW 12,000 FEET
WITH NO SIGNIFICANT WEATHER AND/OR OBSTRUCTIONS TO VISIBILITY.

KYZ001>023-026-027-061>063-070>075-102100-
WESTERN AND SOUTH CENTRAL KENTUCKY

CITY           SKY/WX    TMP DP  RH WIND       PRES   REMARKS
PADUCAH        SUNNY     50  23  34 SW14G29   30.07F
HENDERSON      CLOUDY    43  25  49 SW17      30.02F
OWENSBORO      CLOUDY    43  23  45 SW21      30.03F
HOPKINSVILLE   SUNNY     47  20  33 S22       30.10F
BOWLING GREEN  MOSUNNY   45  21  38 SW14      30.12F
GLASGOW        NOT AVBL
$$

KYZ024-025-028>034-038-045-046-053-102100-
NORTH CENTRAL KENTUCKY

CITY           SKY/WX    TMP DP  RH WIND       PRES   REMARKS
LOUISVILLE/SDF MOSUNNY   41  17  38 SW15G23   30.03F
LOUISVILLE/LOU MOSUNNY   40  17  39 S15G23    30.03F WCI  32
FORT KNOX      MOSUNNY   39  18  41 S15G22    30.01F WCI  31
$$

KYZ035>037-039>044-047>052-055>060-089>105-102100-
NORTHEAST KENTUCKY

CITY           SKY/WX    TMP DP  RH WIND       PRES   REMARKS
LEXINGTON      CLOUDY    36  19  50 S14G23    30.04F WCI  27
COVINGTON      CLOUDY    34  21  59 S16       29.97F WCI  24
FRANKFORT      MOSUNNY   37  16  42 S16G25    30.02F WCI  28
$$

KYZ054-064>069-076>088-106>120-102100-
SOUTHEAST KENTUCKY

CITY           SKY/WX    TMP DP  RH WIND       PRES   REMARKS
JACKSON        MOSUNNY   37  18  46 VRB6      30.06F WCI  32
LONDON         SUNNY     39  15  37 SW9G18    30.10F WCI  33
SOMERSET       NOT AVBL
MIDDLESBORO    SUNNY     41  17  39 S9        30.12F
MONTICELLO     CLEAR     40  19  43 SW20G28   30.13F WCI  30
$$





USA.gov is the U.S. government's official web portal to all federal, state and local government web resources and services.